Regional Weather Roundup
Issued by NWS

Home | Current Version | Previous Version | Text Only | Print | Product List | Glossary On
Versions: 1 2 3 4 5 6 7 8 9 10 11 12 13 14 15 16 17 18 19 20 21 22 23 24 25 26 27 28 29 30 31 32 33 34 35 36 37 38 39 40 41 42 43 44 45 46 47 48 49 50
000
ASUS43 KLMK 310810
RWRKY
KENTUCKY REGIONAL WEATHER ROUNDUP
NATIONAL WEATHER SERVICE LOUISVILLE KY
400 AM EDT SUN JUL 31 2016

NOTE "FAIR" INDICATES FEW OR NO CLOUDS BELOW 12,000 FEET
WITH NO SIGNIFICANT WEATHER AND/OR OBSTRUCTIONS TO VISIBILITY.

KYZ001>023-026-027-061>063-070>075-310900-
WESTERN AND SOUTH CENTRAL KENTUCKY

CITY           SKY/WX    TMP DP  RH WIND       PRES   REMARKS
PADUCAH        PTCLDY    72  69  90 CALM      29.97S
HENDERSON      CLEAR     70  64  83 CALM      29.98R
OWENSBORO      CLEAR     72  72 100 CALM      29.99S
HOPKINSVILLE   PTCLDY    74  73  95 S2        29.99S
BOWLING GREEN  CLEAR     72  70  93 CALM      29.99F
GLASGOW        CLEAR     70  70 100 CALM      30.00S
$$

KYZ024-025-028>034-038-045-046-053-310900-
NORTH CENTRAL KENTUCKY

CITY           SKY/WX    TMP DP  RH WIND       PRES   REMARKS
LOUISVILLE/SDF PTCLDY    74  70  87 CALM      29.98S
LOUISVILLE/LOU CLEAR     72  69  90 CALM      29.99S FOG
FORT KNOX      CLEAR     68  67  98 W2        29.98S FOG
$$

KYZ035>037-039>044-047>052-055>060-089>105-310900-
NORTHEAST KENTUCKY

CITY           SKY/WX    TMP DP  RH WIND       PRES   REMARKS
LEXINGTON      CLEAR     70  68  93 SW3       30.01S
COVINGTON      CLEAR     71  70  96 W5        29.98F
FRANKFORT      CLEAR     69  66  90 CALM      29.99S
$$

KYZ054-064>069-076>088-106>120-310900-
SOUTHEAST KENTUCKY

CITY           SKY/WX    TMP DP  RH WIND       PRES   REMARKS
JACKSON        PTCLDY    70  68  93 CALM      30.02S FOG
LONDON         PTCLDY    71  68  90 CALM      30.03S
SOMERSET       PTCLDY    70  70 100 CALM      30.03R FOG
MIDDLESBORO    CLOUDY    69  69 100 CALM      30.05S
MONTICELLO     PTSUNNY  N/A N/A N/A NW9G16    30.04R HAZE
$$





USA.gov is the U.S. government's official web portal to all federal, state and local government web resources and services.